Tracking 22993 objects as of 11-May-2021
HD Live streaming from Space Station
objects crossing your sky now

COSMOS 1275 DEB

Track COSMOS 1275 DEB now!
10-day predictions


NORAD ID: 12714
Int'l Code: 1981-053BJ
Perigee: 956.5 km
Apogee: 1,143.8 km
Inclination: 83.0 °
Period: 106.0 minutes
Semi major axis: 7421 km
RCS: 0.2013 m2 (medium)
Launch date: June 4, 1981
Source: Commonwealth of Independent States (former USSR) (CIS)
Launch site: PLESETSK MISSILE AND SPACE COMPLEX (PKMTR)

Note: This is SATELLITE DEBRIS
aabbcc
Your satellite tracking list
Your tracking list is empty




NASA's NSSDC Master Catalog

Two Line Element Set (TLE):
1 12714U 81053BJ  21130.73116525  .00000021  00000-0  88485-5 0  9990
2 12714  82.9775 234.3593 0126183 214.7895 144.4955 13.57994365963834
Source of the keplerian elements: AFSPC